Vertical_Velocity
-4 -3 -3 -1 -1 -6 -8 -3 0 -1 -2 1 -1 2 -3 -1 -0 -0 -4 -1 -2 -1 -0 1 -1 0 2 2 2 3 4 -3 6 6 4 4 4 4 5 2 3 2 5 0
-3 -2 -2 -2 -3 -2 -3 -1 1 1 -0 5 3 -2 -4 -1 1 -1 2 -1 -1 -0 -3 -2 -2 1 -3 -1 -1 1 3 5 3 4 3 4 6 7 6 6 1 1 2 3
-1 -4 -3 -4 -6 -5 0 1 -7 -6 -6 -10 -7 -2 0 5 -1 1 -1 -2 0 -0 -0 -4 -0 2 7 2 1 0 1 6 8 5 1 1 5 5 5 2 1 3 5 5
2 0 -5 -6 -3 -5 -3 -7 -2 -0 3 3 -3 -1 -1 -3 1 4 2 -3 -3 -2 -1 -0 0 -2 7 -5 -6 -1 2 5 4 2 9 -0 -0 0 3 4 4 3 4 1
-1 -5 4 5 -1 3 3 4 -8 -5 -6 -5 -1 -2 -1 1 1 2 1 -1 -2 -2 -3 -3 3 2 -2 -2 -0 -1 -3 -4 4 7 -3 3 4 4 3 2 6 6 3 3
-3 -4 -3 -4 -3 -3 -11 -5 4 -1 -0 -4 -5 -2 -1 1 -1 1 1 -1 -0 -3 -4 -5 3 -2 -4 -7 -10 -10 -6 -5 -3 -1 0 -3 2 -0 -0 2 3 3 -1 -3
-2 -4 -4 -4 -6 -4 -4 -6 -1 -6 -5 1 -1 -3 0 -1 -0 1 2 -3 -4 -7 -1 -3 -3 0 -3 -6 -8 -8 -6 -2 -4 -5 -3 -3 0 -2 -2 -1 -0 -0 -5 -5
-1 -3 -2 -2 -1 -2 -3 -2 -5 -6 -6 -3 -3 -5 -3 -1 -0 -2 -3 -2 3 -1 -2 -6 -5 -3 1 -3 -6 -5 -5 -1 -3 1 -1 -1 -2 2 1 -1 5 -2 -1 -0
-2 -4 -4 -2 -3 -1 -4 -2 -1 -4 -7 -5 -0 -1 -1 -3 -7 -1 1 1 -2 -1 -3 -1 2 1 -0 -5 -4 -3 -4 -4 -2 -3 -1 0 0 -0 -1 -5 -3 5 -2 0
-2 -2 -5 -4 -2 -1 -0 -2 -3 -2 -3 -2 -4 -2 -0 -1 -0 -3 -3 -3 -4 -1 -1 -1 -2 -3 -3 -4 -4 -4 -1 -3 -3 -1 -1 -0 0 -0 -3 -4 -3 -2 -3 -1
-1 0 -1 -2 -2 -1 0 -2 0 -4 -1 0 -3 -2 -2 -2 0 0 -1 -2 -1 -2 -2 1 -0 -1 -1 0 0 -1 -1 -2 -2 0 0 4 -1 2 -3 -2 -0 -4 -2 -2
-1 -2 0 0 -3 -4 -3 -1 -1 -2 -1 -1 -2 -1 -2 -1 -1 -0 1 3 1 -2 -1 -0 1 -1 -1 -2 -1 -2 -0 -1 -3 -3 -2 1 -5 -0 -2 -1 -1 -1 -4 -2
-0 -0 1 -3 -0 2 -2 -4 -4 -2 -1 0 -0 -1 -1 0 -2 1 -1 -2 1 1 2 -0 -1 -1 0 0 1 1 0 -0 -1 -3 -1 2 0 -2 -6 -3 -3 -2 -3 -1
1 -1 -1 4 -2 -0 -1 -4 -3 -2 -1 -2 -1 -1 -0 2 1 1 0 -2 -2 1 1 1 1 0 -0 -0 -1 1 -0 -2 -0 2 3 3 1 3 1 2 -1 -0 -1 -1
-1 -1 1 -1 3 1 -2 -1 -3 -2 3 3 0 -1 1 2 0 2 3 4 3 2 2 1 1 0 -1 -2 -1 1 -1 -0 -0 -0 1 -0 1 0 1 2 3 1 -0 3
0 -2 0 -2 -0 -2 -2 -2 -1 -1 -1 1 3 4 -1 -2 -0 -3 -3 -4 -1 3 4 2 3 -1 -2 0 0 0 -1 -1 -2 -3 2 -2 -4 -3 -3 1 -2 -1 0 -1
3 1 -4 -6 -1 -0 -1 -2 -1 -1 0 0 -1 3 1 1 1 2 4 1 1 -3 1 2 -0 1 0 0 0 -0 -1 -0 -1 -2 0 7 1 6 4 1 3 2 1 1
1 0 3 0 -0 -1 0 1 1 -0 -1 -2 -4 -1 3 2 3 0 2 0 -2 -4 -1 -0 1 -0 -0 1 1 1 1 1 -1 -2 -3 -1 -1 0 -1 -3 0 0 -2 -0
1 0 0 0 0 1 2 1 4 2 2 -1 -0 1 -3 -3 1 -2 6 7 1 -2 -0 -1 1 1 0 1 0 1 1 0 3 1 1 0 -1 -1 -1 2 0 -0 1 -1
-4 3 -6 2 -4 -0 -3 -2 -4 0 -0 -0 0 1 0 -3 -2 -4 -1 -0 -1 -3 0 2 2 -0 2 0 -0 0 0 0 2 3 3 -0 -0 1 0 1 0 2 3 3
-1 -3 4 2 3 4 -0 -5 -5 -3 -4 -4 -3 0 1 1 0 1 1 -3 3 -0 0 -1 2 1 1 0 -0 0 0 -1 -2 -1 0 1 2 4 4 3 -1 -1 -1 0
-3 -9 -6 -1 -1 -4 -6 -7 -2 -4 -7 -5 -4 -4 -1 -0 -4 1 0 4 -1 -1 -1 1 -1 -1 -0 0 -0 -0 -1 -2 -2 -1 -1 -2 -2 -1 -2 -1 1 -1 -1 -3
-5 -5 -4 -4 2 -2 -4 -6 -0 -4 -2 -1 1 -2 -1 -6 -2 1 0 -2 0 3 -1 -2 1 -1 -0 1 1 -1 -2 -1 -0 -1 -1 -1 -2 -3 -2 -2 -3 -2 -1 -0
-10 -6 -4 3 -2 -1 -2 -1 -1 2 0 -0 1 5 -4 -3 -1 -1 0 1 1 -1 -1 1 -0 1 0 -0 0 1 1 1 1 1 1 0 0 -1 -1 -2 -1 -2 -2 -2
-5 -6 -5 -1 -1 -5 -1 1 -0 0 -1 -1 -3 5 5 4 3 1 -1 -2 -2 1 -1 -1 0 1 1 1 1 1 2 1 1 1 0 -0 0 -0 -1 -0 -1 -2 -2 -2
2 -3 -1 -3 1 -0 0 4 1 2 2 0 -2 1 -2 -0 1 2 3 1 0 -1 1 2 1 1 1 1 2 2 1 0 -0 0 0 1 1 1 -1 -0 1 1 -0 -1
2 1 -1 -7 -5 -3 -1 2 1 1 2 0 -1 -5 -4 -1 0 -2 1 1 1 2 2 1 1 1 1 0 0 0 1 0 -0 -0 -1 -1 -1 1 1 -1 -3 -4 -2 -1
Height
5714 5705 5695 5686 5676 5665 5654 5642 5630 5617 5606 5599 5588 5579 5570 5562 5555 5547 5540 5535 5531 5526 5522 5518 5513 5508 5501 5496 5490 5485 5480 5475 5475 5479 5480 5481 5483 5484 5485 5485 5489 5491 5493 5495
5709 5700 5691 5681 5672 5661 5650 5638 5626 5615 5604 5593 5582 5571 5562 5555 5548 5541 5535 5530 5526 5521 5516 5511 5505 5500 5492 5484 5475 5468 5462 5458 5457 5459 5464 5467 5470 5472 5472 5472 5472 5476 5481 5483
5706 5696 5686 5676 5665 5653 5641 5629 5618 5608 5597 5586 5575 5565 5557 5549 5542 5535 5530 5525 5520 5515 5509 5503 5497 5491 5483 5473 5462 5450 5443 5443 5444 5446 5450 5453 5456 5455 5456 5457 5461 5465 5466 5469
5702 5692 5681 5670 5659 5645 5634 5621 5611 5600 5590 5580 5568 5559 5549 5542 5536 5530 5525 5519 5513 5508 5503 5497 5490 5483 5475 5463 5450 5438 5432 5433 5433 5436 5439 5441 5442 5444 5446 5448 5451 5452 5455 5456
5696 5687 5678 5667 5653 5640 5628 5616 5603 5592 5581 5571 5561 5552 5544 5537 5530 5524 5519 5514 5508 5502 5496 5490 5484 5476 5467 5457 5446 5434 5425 5422 5423 5427 5429 5432 5434 5436 5437 5439 5440 5440 5442 5444
5690 5681 5671 5661 5649 5636 5623 5610 5601 5588 5577 5566 5556 5547 5539 5532 5524 5519 5513 5508 5503 5496 5491 5484 5478 5469 5459 5450 5440 5429 5422 5421 5420 5420 5422 5424 5425 5425 5426 5428 5429 5429 5430 5432
5685 5675 5664 5652 5640 5628 5616 5605 5593 5581 5571 5561 5551 5542 5534 5526 5520 5513 5508 5502 5497 5492 5485 5479 5472 5464 5454 5445 5437 5429 5422 5419 5418 5418 5418 5418 5417 5416 5416 5417 5417 5417 5418 5420
5678 5668 5657 5645 5632 5620 5609 5597 5586 5575 5565 5555 5546 5537 5530 5523 5516 5509 5503 5498 5493 5486 5480 5473 5467 5461 5452 5442 5436 5430 5423 5418 5416 5416 5414 5413 5411 5411 5410 5409 5411 5407 5408 5408
5672 5661 5650 5638 5626 5614 5602 5591 5580 5569 5559 5551 5541 5534 5526 5518 5511 5506 5500 5494 5489 5483 5476 5471 5464 5457 5449 5442 5434 5429 5425 5420 5417 5412 5410 5408 5407 5405 5402 5400 5402 5401 5399 5399
5667 5655 5644 5632 5620 5609 5596 5584 5573 5564 5554 5546 5537 5530 5523 5516 5508 5501 5495 5490 5484 5480 5474 5468 5463 5455 5448 5441 5433 5428 5424 5420 5417 5413 5409 5407 5403 5400 5397 5395 5397 5392 5391 5390
5661 5649 5636 5626 5614 5604 5592 5581 5569 5559 5550 5542 5533 5526 5520 5513 5506 5499 5492 5487 5482 5476 5471 5466 5460 5453 5447 5441 5435 5430 5425 5420 5416 5413 5409 5407 5402 5398 5394 5392 5389 5387 5385 5383
5654 5643 5632 5620 5608 5597 5586 5576 5565 5556 5546 5538 5531 5524 5517 5510 5503 5496 5489 5484 5478 5473 5468 5463 5456 5450 5444 5439 5435 5429 5426 5421 5415 5411 5407 5403 5398 5396 5392 5388 5386 5383 5380 5377
5647 5636 5625 5613 5602 5592 5580 5569 5560 5551 5543 5536 5527 5519 5513 5506 5499 5493 5488 5481 5476 5471 5466 5460 5455 5449 5443 5437 5432 5428 5423 5418 5413 5409 5404 5399 5394 5390 5386 5383 5380 5378 5373 5370
5641 5629 5618 5607 5596 5586 5576 5565 5555 5547 5540 5532 5524 5516 5510 5503 5497 5490 5483 5478 5472 5467 5461 5456 5452 5447 5441 5436 5430 5425 5419 5413 5409 5406 5401 5397 5390 5384 5380 5377 5372 5370 5366 5363
5634 5623 5612 5601 5591 5580 5570 5560 5551 5543 5537 5528 5520 5512 5506 5500 5493 5487 5480 5474 5469 5462 5456 5451 5446 5442 5438 5432 5426 5421 5414 5408 5404 5399 5395 5389 5385 5378 5374 5370 5366 5362 5359 5356
5628 5616 5605 5595 5584 5573 5565 5556 5547 5539 5531 5524 5517 5510 5502 5496 5489 5483 5476 5469 5462 5457 5450 5445 5441 5436 5432 5427 5422 5417 5411 5405 5399 5393 5389 5381 5375 5371 5366 5363 5359 5354 5351 5349
5620 5608 5599 5590 5578 5567 5558 5550 5542 5533 5525 5518 5512 5505 5498 5492 5485 5479 5472 5464 5457 5450 5443 5439 5436 5431 5427 5422 5416 5412 5407 5402 5395 5387 5382 5379 5372 5367 5362 5357 5353 5348 5344 5340
5614 5602 5592 5583 5571 5561 5554 5546 5537 5528 5521 5513 5505 5499 5494 5487 5481 5474 5467 5460 5452 5444 5437 5434 5431 5427 5422 5418 5412 5407 5403 5398 5390 5383 5376 5371 5366 5360 5354 5348 5344 5340 5336 5332
5606 5596 5587 5577 5567 5557 5550 5540 5533 5525 5517 5507 5500 5493 5487 5482 5475 5468 5462 5455 5448 5441 5434 5430 5427 5423 5418 5413 5407 5401 5396 5390 5386 5379 5373 5367 5361 5355 5349 5343 5338 5332 5328 5324
5597 5589 5579 5570 5561 5551 5545 5536 5529 5521 5513 5503 5496 5489 5482 5477 5469 5462 5457 5449 5443 5437 5432 5426 5422 5418 5413 5407 5401 5395 5389 5383 5379 5373 5368 5362 5356 5350 5345 5339 5333 5327 5322 5317
5588 5582 5573 5562 5553 5546 5538 5530 5523 5515 5507 5499 5492 5486 5480 5473 5467 5459 5452 5445 5438 5432 5428 5422 5417 5412 5407 5401 5395 5389 5383 5376 5371 5365 5359 5354 5349 5344 5338 5331 5325 5319 5313 5308
5579 5571 5562 5553 5547 5538 5532 5525 5518 5510 5502 5494 5488 5482 5476 5469 5461 5454 5447 5440 5433 5427 5421 5416 5411 5406 5400 5394 5388 5381 5375 5370 5363 5358 5352 5347 5341 5335 5329 5322 5316 5310 5304 5299
5571 5562 5553 5546 5540 5533 5525 5520 5513 5505 5497 5491 5484 5477 5470 5462 5455 5448 5440 5434 5428 5423 5415 5409 5405 5399 5392 5387 5381 5375 5369 5363 5357 5351 5346 5340 5334 5328 5321 5314 5307 5301 5295 5289
5558 5552 5545 5538 5531 5526 5520 5514 5507 5501 5493 5486 5479 5471 5464 5456 5448 5441 5434 5429 5421 5415 5409 5404 5398 5391 5385 5379 5373 5368 5362 5356 5351 5345 5339 5333 5327 5320 5313 5306 5299 5293 5287 5281
5550 5543 5536 5529 5523 5518 5513 5507 5501 5495 5487 5480 5473 5466 5459 5450 5443 5435 5428 5422 5416 5411 5405 5398 5391 5384 5379 5373 5367 5361 5355 5349 5344 5338 5332 5325 5319 5312 5305 5298 5291 5285 5279 5273
5544 5535 5528 5522 5517 5511 5504 5499 5493 5487 5480 5473 5466 5459 5450 5443 5435 5430 5424 5418 5411 5405 5397 5391 5384 5378 5372 5366 5360 5354 5348 5343 5337 5330 5324 5318 5311 5304 5296 5289 5283 5277 5271 5264
5536 5527 5519 5513 5509 5503 5496 5490 5485 5479 5473 5466 5458 5451 5443 5436 5430 5424 5418 5411 5405 5398 5391 5384 5378 5372 5365 5359 5353 5348 5341 5335 5329 5322 5315 5308 5301 5294 5287 5280 5274 5268 5262 5256